When you browse on this site, cookies collect data to enhance your experience and personalize the content and advertising you see.
Visit our Privacy Policy to learn more. By continuing to use the site, you agree to this use of cookies and data.
  • In United Kingdom
  • List of Countries
  • For 7 days
  • Water Temperature
  • Satellite Maps
  • Weather Map
  • Weather Widgets
  • user-avatar
    Login

    Hourly Weather Kankan

    Today, 19 July, Friday

    Time Temperature Precipitation Wind Pressure Humidity
    00:00 +22°C° 1 mm 1 mps 685 mmHg 92%
    01:00 +22°C° 0 mm 1 mps 685 mmHg 92%
    02:00 +22°C° 2.3 mm 1 mps 685 mmHg 93%
    03:00 +22°C° 2.3 mm 1 mps 685 mmHg 93%
    04:00 +22°C° 2.3 mm 1 mps 685 mmHg 94%
    05:00 +20°C° 7.4 mm 2 mps 685 mmHg 95%
    06:00 +20°C° 7.4 mm 3 mps 685 mmHg 96%
    07:00 +20°C° 0 mm 3 mps 686 mmHg 97%
    08:00 +20°C° 8.1 mm 3 mps 686 mmHg 96%
    09:00 +20°C° 8.1 mm 2 mps 686 mmHg 95%
    10:00 +19°C° 8.1 mm 2 mps 686 mmHg 94%
    11:00 +21°C° 0 mm 2 mps 686 mmHg 89%
    12:00 +23°C° 0 mm 2 mps 686 mmHg 84%
    13:00 +25°C° 0 mm 2 mps 686 mmHg 79%
    14:00 +25°C° 0 mm 2 mps 686 mmHg 75%
    15:00 +26°C° 0 mm 1 mps 685 mmHg 70%
    16:00 +27°C° 0 mm 1 mps 684 mmHg 66%
    17:00 +25°C° 0.2 mm 1 mps 685 mmHg 72%
    18:00 +24°C° 0.2 mm 1 mps 685 mmHg 78%
    19:00 +23°C° 0.2 mm 1 mps 685 mmHg 83%
    20:00 +22°C° 0.2 mm 1 mps 685 mmHg 86%
    21:00 +22°C° 0.2 mm 1 mps 686 mmHg 90%
    22:00 +19°C° 0.2 mm 0 mps 686 mmHg 93%
    23:00 +21°C° 0 mm 1 mps 686 mmHg 92%

    Tomorrow, 20 July, Saturday

    Time Temperature Precipitation Wind Pressure Humidity
    00:00 +21°C° 0 mm 1 mps 686 mmHg 92%
    01:00 +21°C° 0 mm 1 mps 686 mmHg 91%
    02:00 +21°C° 0.1 mm 1 mps 685 mmHg 92%
    03:00 +21°C° 0.1 mm 1 mps 685 mmHg 93%
    04:00 +20°C° 0.1 mm 1 mps 684 mmHg 94%
    05:00 +21°C° 0.2 mm 1 mps 685 mmHg 93%
    06:00 +21°C° 0.2 mm 1 mps 686 mmHg 92%
    07:00 +21°C° 0.2 mm 1 mps 686 mmHg 92%
    08:00 +22°C° 0.2 mm 1 mps 687 mmHg 91%
    09:00 +20°C° 0.2 mm 0 mps 687 mmHg 89%
    10:00 +21°C° 0.2 mm 0 mps 687 mmHg 88%
    11:00 +24°C° 0.6 mm 1 mps 687 mmHg 84%
    12:00 +25°C° 0.6 mm 1 mps 687 mmHg 80%
    13:00 +26°C° 0.6 mm 2 mps 687 mmHg 75%
    14:00 +26°C° 1.4 mm 2 mps 686 mmHg 77%
    15:00 +26°C° 1.4 mm 1 mps 685 mmHg 79%
    16:00 +26°C° 1.4 mm 1 mps 685 mmHg 82%
    17:00 +25°C° 0.4 mm 1 mps 685 mmHg 85%
    18:00 +24°C° 0.4 mm 1 mps 685 mmHg 88%
    19:00 +23°C° 0.4 mm 1 mps 685 mmHg 91%
    20:00 +22°C° 0 mm 1 mps 685 mmHg 92%
    21:00 +22°C° 0 mm 1 mps 685 mmHg 92%
    22:00 +21°C° 0 mm 1 mps 686 mmHg 93%
    23:00 +21°C° 0 mm 1 mps 686 mmHg 93%

    Day after tomorrow, 21 July, Sunday

    Time Temperature Precipitation Wind Pressure Humidity
    00:00 +21°C° 0 mm 1 mps 686 mmHg 93%
    01:00 +21°C° 0 mm 1 mps 686 mmHg 93%
    02:00 +21°C° 0 mm 1 mps 685 mmHg 94%
    03:00 +20°C° 0 mm 1 mps 685 mmHg 94%
    04:00 +20°C° 0 mm 1 mps 685 mmHg 94%
    05:00 +20°C° 0 mm 1 mps 685 mmHg 94%
    06:00 +21°C° 0 mm 1 mps 685 mmHg 94%
    07:00 +21°C° 0 mm 1 mps 686 mmHg 94%
    08:00 +23°C° 0 mm 1 mps 686 mmHg 87%
    09:00 +25°C° 0 mm 1 mps 687 mmHg 79%
    10:00 +27°C° 0 mm 1 mps 688 mmHg 72%
    11:00 +28°C° 0.2 mm 1 mps 687 mmHg 70%
    12:00 +28°C° 0.2 mm 1 mps 687 mmHg 67%
    13:00 +29°C° 0.2 mm 1 mps 686 mmHg 64%
    14:00 +29°C° 1.4 mm 1 mps 685 mmHg 68%
    15:00 +28°C° 1.4 mm 1 mps 685 mmHg 71%
    16:00 +28°C° 1.4 mm 1 mps 684 mmHg 74%
    17:00 +26°C° 1.1 mm 1 mps 684 mmHg 78%
    18:00 +25°C° 1.1 mm 1 mps 684 mmHg 82%
    19:00 +22°C° 1.1 mm 0 mps 684 mmHg 86%
    20:00 +21°C° 1.2 mm 0 mps 684 mmHg 88%
    21:00 +21°C° 1.2 mm 0 mps 685 mmHg 90%
    22:00 +20°C° 1.2 mm 0 mps 685 mmHg 92%
    23:00 +22°C° 1.9 mm 1 mps 685 mmHg 92%

    22 July, Monday

    Time Temperature Precipitation Wind Pressure Humidity
    00:00 +22°C° 1.9 mm 1 mps 685 mmHg 93%
    01:00 +22°C° 1.9 mm 1 mps 684 mmHg 94%
    02:00 +22°C° 0.1 mm 1 mps 684 mmHg 92%
    03:00 +22°C° 0.1 mm 1 mps 684 mmHg 91%
    04:00 +22°C° 0.1 mm 1 mps 684 mmHg 89%
    05:00 +22°C° 0 mm 1 mps 684 mmHg 89%
    06:00 +22°C° 0 mm 1 mps 685 mmHg 89%
    07:00 +22°C° 0 mm 1 mps 685 mmHg 89%
    08:00 +24°C° 0.4 mm 1 mps 686 mmHg 83%
    09:00 +26°C° 0.4 mm 1 mps 686 mmHg 78%
    10:00 +27°C° 0.4 mm 1 mps 687 mmHg 72%
    11:00 +28°C° 0.9 mm 1 mps 687 mmHg 69%
    12:00 +29°C° 0.9 mm 1 mps 686 mmHg 67%
    13:00 +29°C° 0.9 mm 1 mps 686 mmHg 64%
    14:00 +29°C° 1.4 mm 1 mps 685 mmHg 66%
    15:00 +28°C° 1.4 mm 1 mps 684 mmHg 69%
    16:00 +28°C° 1.4 mm 1 mps 683 mmHg 71%
    17:00 +27°C° 1.2 mm 1 mps 684 mmHg 76%
    18:00 +23°C° 1.2 mm 0 mps 684 mmHg 81%
    19:00 +22°C° 1.2 mm 0 mps 684 mmHg 86%
    20:00 +23°C° 0.7 mm 1 mps 684 mmHg 87%
    21:00 +23°C° 0.7 mm 1 mps 685 mmHg 87%
    22:00 +22°C° 0.7 mm 1 mps 685 mmHg 88%
    23:00 +22°C° 0.1 mm 1 mps 685 mmHg 89%

    23 July, Tuesday

    Time Temperature Precipitation Wind Pressure Humidity
    00:00 +22°C° 0.1 mm 1 mps 685 mmHg 90%
    01:00 +21°C° 0.1 mm 1 mps 685 mmHg 91%
    02:00 +21°C° 0 mm 1 mps 685 mmHg 92%
    03:00 +21°C° 0 mm 1 mps 684 mmHg 92%
    04:00 +21°C° 0 mm 1 mps 684 mmHg 93%
    05:00 +21°C° 0 mm 1 mps 684 mmHg 93%
    06:00 +22°C° 0 mm 1 mps 685 mmHg 93%
    07:00 +22°C° 0 mm 1 mps 685 mmHg 94%
    08:00 +23°C° 0 mm 1 mps 686 mmHg 87%
    09:00 +25°C° 0 mm 1 mps 686 mmHg 80%
    10:00 +27°C° 0 mm 1 mps 687 mmHg 74%
    11:00 +28°C° 0.5 mm 1 mps 687 mmHg 71%
    12:00 +29°C° 0.5 mm 1 mps 686 mmHg 67%
    13:00 +30°C° 0.5 mm 1 mps 686 mmHg 64%
    14:00 +29°C° 1.6 mm 1 mps 685 mmHg 66%
    15:00 +29°C° 1.6 mm 1 mps 684 mmHg 69%
    16:00 +28°C° 1.6 mm 1 mps 684 mmHg 71%
    17:00 +27°C° 1.1 mm 1 mps 684 mmHg 76%
    18:00 +25°C° 1.1 mm 1 mps 684 mmHg 82%
    19:00 +24°C° 1.1 mm 1 mps 684 mmHg 87%
    20:00 +24°C° 0.7 mm 1 mps 684 mmHg 87%
    21:00 +23°C° 0.7 mm 1 mps 685 mmHg 88%
    22:00 +23°C° 0.7 mm 1 mps 685 mmHg 89%
    23:00 +22°C° 0.3 mm 1 mps 685 mmHg 90%

    24 July, Wednesday

    Time Temperature Precipitation Wind Pressure Humidity
    00:00 +22°C° 0.3 mm 1 mps 685 mmHg 91%
    01:00 +21°C° 0.3 mm 1 mps 684 mmHg 93%
    02:00 +20°C° 0 mm 2 mps 684 mmHg 94%
    03:00 +20°C° 0 mm 2 mps 684 mmHg 94%
    04:00 +20°C° 0 mm 2 mps 684 mmHg 95%
    05:00 +20°C° 0 mm 2 mps 685 mmHg 95%
    06:00 +20°C° 0 mm 2 mps 685 mmHg 94%
    07:00 +20°C° 0 mm 2 mps 685 mmHg 94%
    08:00 +21°C° 0.6 mm 2 mps 686 mmHg 94%
    09:00 +21°C° 0.6 mm 2 mps 686 mmHg 93%
    10:00 +21°C° 0.6 mm 2 mps 687 mmHg 93%
    11:00 +23°C° 0.5 mm 2 mps 686 mmHg 90%
    12:00 +24°C° 0.5 mm 2 mps 686 mmHg 87%
    13:00 +24°C° 0.5 mm 2 mps 685 mmHg 84%
    14:00 +25°C° 0.3 mm 2 mps 685 mmHg 81%
    15:00 +26°C° 0.3 mm 2 mps 685 mmHg 77%
    16:00 +27°C° 0.3 mm 2 mps 684 mmHg 74%
    17:00 +26°C° 0.4 mm 2 mps 684 mmHg 80%
    18:00 +24°C° 0.4 mm 2 mps 684 mmHg 86%
    19:00 +23°C° 0.4 mm 1 mps 684 mmHg 92%
    20:00 +22°C° 1 mm 1 mps 684 mmHg 92%
    21:00 +22°C° 1 mm 1 mps 685 mmHg 93%
    22:00 +21°C° 1 mm 1 mps 685 mmHg 94%
    23:00 +21°C° 0.3 mm 1 mps 685 mmHg 94%
    Show more